Temperature
14 14 13 13 13 12 12 12 12 12 13 13 13 13 13 12 12 13 13 13 13 13 13 13 13 13 13 13 13 13 13 13 14 14 14 14 14 14 14 14 14 14 14
13 13 12 12 12 12 11 11 11 12 12 12 12 12 12 12 12 12 12 12 12 12 12 12 12 12 12 12 13 13 13 13 13 13 13 13 14 14 14 14 14 14 14
12 12 12 12 11 11 10 10 11 11 12 12 12 12 12 12 12 12 12 12 12 12 12 12 12 12 12 12 12 12 13 13 13 13 13 13 13 13 13 14 14 14 14
12 12 11 11 11 10 10 10 11 11 12 12 12 11 12 12 12 12 11 11 11 11 11 11 11 11 11 11 12 12 12 12 13 13 13 13 13 13 13 13 13 13 13
12 11 11 11 11 10 10 10 11 11 11 12 12 11 11 11 11 11 11 11 11 11 11 11 11 11 11 11 11 11 12 12 12 13 12 12 12 12 12 12 12 13 13
11 11 11 11 11 11 11 11 11 11 11 11 11 11 12 12 12 11 11 11 11 11 11 11 11 11 11 11 11 12 12 12 11 12 12 12 11 11 12 12 12 12 12
11 11 11 11 11 11 11 11 11 11 11 11 11 12 12 12 11 11 11 11 11 11 11 11 11 11 11 11 11 11 11 11 11 11 11 11 11 11 11 11 11 11 11
11 12 12 12 11 11 11 11 11 11 11 11 11 11 12 11 11 11 11 11 11 10 10 10 10 10 11 10 10 11 11 11 11 11 11 11 11 11 11 11 11 12 11
12 12 12 11 11 11 11 11 11 11 11 11 11 11 11 11 11 11 11 10 10 10 10 10 10 10 10 10 10 10 10 10 10 10 11 11 11 11 11 12 12 12 12
12 11 11 11 11 11 11 11 11 11 11 11 11 11 11 11 11 10 10 10 10 10 10 10 10 10 10 10 10 10 10 10 10 10 10 10 10 10 10 11 11 11 12
11 11 11 11 11 11 11 11 11 10 10 10 11 10 10 10 10 10 10 10 10 10 10 10 10 10 10 10 9 9 10 10 10 10 10 10 10 10 10 10 10 10 10
11 11 11 11 11 10 11 10 10 10 10 10 10 10 10 10 10 10 10 10 9 9 10 10 9 9 9 9 9 9 9 10 10 10 10 10 10 9 9 9 9 9 9
11 11 11 10 10 10 10 10 10 10 10 10 10 10 10 9 9 9 9 9 9 9 9 9 9 9 8 8 8 8 9 9 9 10 9 9 9 9 9 9 9 9 9
10 10 10 10 10 10 10 10 10 10 10 10 10 10 9 9 9 9 9 9 9 8 8 8 8 8 8 8 8 8 8 8 8 8 8 8 8 8 9 8 9 9 9
10 10 10 10 10 10 10 10 10 10 10 10 10 10 9 9 9 9 9 8 9 8 8 8 9 9 9 9 8 8 8 8 8 7 7 8 8 8 8 8 8 8 9
10 10 10 10 10 10 10 9 9 9 9 9 9 9 9 9 9 9 9 8 8 8 9 9 9 9 9 9 9 8 8 7 7 7 7 7 7 7 7 7 7 7 8
10 10 10 10 10 10 10 10 9 9 9 9 9 8 8 8 8 8 8 8 8 8 9 9 9 9 9 9 8 8 8 7 6 6 6 6 6 6 6 7 7 6 7
10 10 10 10 10 10 10 10 10 9 9 8 8 8 8 8 8 8 8 8 8 8 9 9 9 9 9 8 8 8 7 7 6 6 6 6 6 6 6 6 6 5 6
10 10 10 10 10 10 10 10 10 10 10 9 8 8 8 8 8 8 8 8 9 9 9 9 9 9 8 8 8 7 7 7 6 6 6 5 5 6 6 6 6 5 6
10 10 10 10 10 10 10 10 10 10 10 10 9 9 8 8 8 8 8 9 9 9 9 9 9 9 8 8 8 7 7 7 6 6 6 5 5 5 5 5 5 6 6
11 10 9 9 10 10 10 10 10 10 10 10 10 10 9 9 9 9 9 9 9 9 9 9 9 9 9 8 8 7 7 7 6 6 6 5 5 5 5 5 5 5 5
11 10 9 10 10 10 10 10 10 10 11 11 10 10 9 10 10 10 10 10 10 9 9 9 9 9 9 9 8 7 7 7 6 6 5 5 5 5 5 5 5 5 5
11 11 10 10 10 10 10 10 11 11 11 11 11 10 10 9 10 10 10 10 10 10 10 9 9 9 9 8 8 7 7 7 6 6 5 5 4 4 4 4 4 4 4
11 11 10 10 10 10 10 10 11 11 11 11 11 11 11 10 10 10 10 10 10 10 10 10 10 9 9 8 8 8 7 7 6 5 5 4 4 4 4 3 3 3 3
12 11 11 11 10 10 10 10 11 11 11 11 11 11 11 11 10 10 10 10 10 10 10 10 10 9 9 9 8 8 7 6 6 5 4 4 3 3 3 3 3 3 3
12 11 11 11 11 11 11 11 11 11 11 11 11 11 11 11 11 11 11 11 11 11 10 10 10 10 9 9 8 7 7 6 6 5 4 4 3 3 3 3 2 2 2
Wind_Speed
8 7 4 3 3 4 3 3 3 3 4 5 5 5 5 5 4 4 3 3 2 3 3 3 4 4 4 4 4 4 4 5 7 6 4 5 5 6 5 5 5 4 4
5 4 2 2 4 4 3 2 1 3 3 4 5 5 5 5 4 4 5 5 5 6 6 5 5 4 5 5 6 6 5 5 7 8 7 6 5 5 6 4 4 4 4
4 5 6 5 6 5 3 1 1 3 4 5 6 6 6 6 6 7 7 7 7 7 6 6 6 6 6 6 7 7 6 6 5 6 6 5 4 6 7 5 4 4 4
2 4 5 5 4 5 3 3 4 5 6 7 7 7 7 8 8 9 8 8 8 8 7 7 8 8 8 8 6 7 7 7 6 5 6 6 7 8 8 7 6 3 3
1 2 5 6 7 7 8 7 6 6 7 7 8 8 8 8 8 9 10 10 10 10 9 9 9 8 8 8 8 9 9 8 8 7 8 9 9 9 9 8 8 6 2
3 4 8 9 9 9 9 8 8 7 8 8 9 9 10 9 10 10 9 11 10 10 9 8 8 8 7 7 8 9 10 10 10 9 10 10 10 10 9 8 8 6 4
4 4 7 10 10 10 10 9 8 8 9 9 9 10 11 9 9 10 8 10 10 9 9 8 9 9 8 8 6 5 9 8 7 9 11 11 11 10 10 9 8 7 5
4 4 7 9 11 10 9 9 8 8 8 9 9 11 11 9 8 8 7 10 10 9 9 9 9 9 9 8 7 9 10 10 10 10 10 10 10 10 10 8 4 3 4
5 5 7 9 11 11 11 11 9 8 9 9 9 11 11 9 6 4 2 8 8 8 8 8 8 9 12 13 6 7 7 6 5 4 4 3 4 8 12 10 10 8 6
6 6 7 8 10 11 11 11 10 9 9 9 9 10 10 9 6 2 2 4 6 5 6 6 11 10 11 13 7 7 7 6 6 5 3 3 6 8 10 12 11 10 8
7 7 7 8 8 9 9 9 10 9 9 9 10 9 8 8 7 3 3 2 3 3 3 4 6 10 10 11 8 7 6 7 5 5 5 7 7 8 10 10 10 9 9
9 9 9 9 9 9 9 9 10 10 11 10 10 9 8 7 7 7 7 6 4 2 1 3 6 7 7 8 7 8 10 9 5 6 6 7 8 9 9 9 8 7 7
10 10 10 10 9 9 10 10 10 10 10 10 10 9 8 8 7 6 6 4 4 1 3 6 4 1 2 4 6 7 7 6 6 6 7 7 7 8 8 7 7 6 3
12 11 11 11 10 10 9 9 10 10 10 10 10 9 9 8 8 7 6 5 5 4 4 5 4 2 2 3 2 2 6 7 7 7 7 7 7 7 7 8 8 8 7
13 12 12 11 10 10 9 7 8 9 8 9 9 9 10 9 7 5 1 3 3 4 4 6 6 5 4 4 4 5 6 6 6 7 7 7 7 8 7 7 8 8 7
13 12 11 10 10 10 10 9 6 5 9 6 4 4 6 10 13 8 5 4 2 1 4 5 5 4 4 4 4 5 5 7 7 7 7 7 7 7 8 7 8 8 8
14 12 11 11 11 11 11 11 10 6 6 6 6 6 11 15 13 10 7 6 4 4 5 5 5 4 4 4 4 5 6 6 6 6 7 7 7 7 7 7 8 8 8
15 13 11 11 11 11 12 12 12 12 12 10 8 10 15 15 13 11 10 9 7 7 6 6 5 4 3 3 4 5 5 5 6 6 6 7 7 7 7 7 7 9 9
16 13 12 12 12 12 12 12 12 14 13 13 13 11 12 12 11 9 10 8 8 8 7 6 5 4 3 2 2 2 3 4 5 5 5 6 6 6 6 7 7 6 7
16 14 13 13 13 13 13 13 12 13 13 13 14 14 14 12 10 10 10 9 7 7 7 6 5 4 4 2 1 1 2 3 4 4 5 5 5 6 6 6 7 7 7
16 15 15 14 14 14 14 14 13 13 13 13 13 14 17 14 13 12 12 10 9 8 7 7 6 6 6 5 4 4 3 3 3 4 5 5 5 5 6 6 7 7 7
16 15 16 16 14 14 15 14 14 14 15 15 13 14 15 13 12 12 11 11 10 9 8 8 8 7 6 6 6 6 5 4 4 3 4 4 4 5 6 6 6 7 7
17 17 17 17 16 15 15 16 15 16 16 16 15 14 14 14 13 12 12 11 11 10 10 9 9 9 8 7 7 7 7 5 4 3 4 4 4 5 5 6 6 7 7
18 18 18 18 17 17 17 17 16 17 16 16 15 14 14 14 14 14 14 12 12 12 11 10 11 12 12 10 9 10 9 6 5 4 4 4 4 4 4 5 6 6 7
19 19 18 18 18 18 18 18 18 17 17 15 15 14 14 14 14 14 14 14 14 13 13 13 11 12 14 15 14 11 10 11 7 5 5 5 5 4 5 5 5 6 7
19 19 18 18 18 18 18 19 18 18 17 16 15 15 14 15 14 14 14 14 13 13 13 13 14 15 15 15 15 13 19 18 14 9 7 6 5 5 4 5 5 6 6
Wind_Direction
325 315 282 228 168 147 140 136 148 166 172 172 176 177 182 189 191 196 178 156 129 89 66 52 38 15 355 347 340 326 317 308 300 304 296 303 305 311 313 288 268 249 234
359 6 18 89 108 94 74 68 132 160 161 161 167 165 165 164 166 155 129 105 90 78 65 55 40 32 18 8 355 352 344 326 309 311 315 317 312 316 311 287 258 249 247
30 54 63 71 86 83 66 66 156 150 146 148 150 146 141 136 125 109 99 89 80 70 62 56 46 35 25 21 6 3 351 341 332 320 332 343 337 344 334 319 273 246 235
51 89 99 104 112 127 159 188 178 155 142 136 133 129 125 118 110 103 97 90 84 77 68 58 46 38 26 12 12 12 2 356 12 12 19 17 11 4 359 346 328 285 243
295 152 160 162 170 171 176 179 165 148 136 131 128 122 116 109 103 103 101 97 92 86 76 67 59 53 43 24 22 18 17 20 30 34 36 31 22 11 5 351 339 331 293
245 197 177 173 178 176 173 167 154 141 134 132 125 117 107 98 82 78 95 99 91 85 78 74 76 61 76 76 55 44 31 29 29 27 36 32 22 13 3 5 4 5 4
234 197 178 173 175 173 165 157 149 142 135 128 123 115 107 100 89 81 76 96 89 80 73 63 59 54 37 58 87 114 70 50 24 26 39 24 19 12 1 15 31 35 17
228 191 172 168 164 160 160 154 150 145 138 134 131 125 120 115 104 99 94 98 92 84 76 70 65 55 35 19 58 64 61 52 39 43 44 34 26 5 354 0 4 63 67
221 190 173 164 161 163 164 160 155 151 145 145 140 138 134 133 132 122 128 113 105 92 78 62 54 57 19 353 39 56 56 60 93 80 21 359 358 7 2 7 6 9 34
215 188 172 167 165 166 162 160 155 152 149 146 140 145 144 142 141 144 263 132 119 115 105 95 66 41 18 3 25 37 38 24 16 30 41 22 26 34 27 19 9 7 12
207 184 173 166 160 156 154 154 153 154 148 140 137 136 137 136 136 112 344 134 129 123 106 87 67 40 29 14 9 33 2 321 345 11 24 25 26 28 24 25 19 13 11
201 187 174 166 161 155 156 156 156 152 148 144 141 138 133 130 118 107 74 53 6 104 70 62 68 48 42 32 33 8 328 317 1 14 16 16 14 14 15 16 18 19 17
197 186 175 168 164 162 163 161 162 166 167 161 158 153 148 139 124 114 107 85 14 38 72 60 51 31 218 104 58 349 343 9 10 8 7 5 3 3 352 353 357 351 344
195 184 176 173 172 170 173 174 176 178 176 172 168 162 156 157 159 163 163 162 170 166 138 134 166 231 151 93 132 35 40 30 5 4 359 354 353 354 358 358 350 348 347
194 186 184 185 182 177 183 178 189 184 179 178 175 171 170 173 143 82 150 161 160 129 160 167 161 151 130 96 75 52 33 25 14 10 3 358 357 357 358 0 353 344 351
195 191 190 191 185 186 179 169 65 88 110 108 107 162 141 124 129 125 107 93 86 296 227 157 141 124 98 73 54 49 43 28 10 8 9 3 358 357 357 358 357 356 357
201 195 195 194 189 193 189 184 173 133 105 124 127 112 130 140 147 159 167 170 188 231 202 152 141 125 104 82 58 42 37 39 12 11 13 6 1 1 4 2 7 1 357
203 196 199 197 195 197 196 193 185 176 173 173 162 142 144 155 164 174 176 180 182 210 189 159 153 141 118 78 54 38 30 26 19 11 15 7 2 3 6 1 12 6 350
203 199 198 200 198 199 196 195 191 186 182 176 169 163 164 167 177 189 197 213 185 186 183 174 171 165 159 127 67 27 20 19 15 350 10 3 356 357 1 355 358 4 339
202 197 191 198 198 197 195 195 192 187 184 180 178 176 173 183 191 188 203 210 199 190 189 191 193 197 205 205 216 291 331 352 347 339 359 350 349 347 348 346 349 348 351
197 189 187 200 199 195 194 194 192 189 187 185 184 175 173 190 195 191 192 195 201 201 200 207 208 212 216 216 231 242 270 306 327 330 332 333 336 335 332 336 340 341 345
194 188 191 200 199 196 194 194 193 192 191 189 185 172 173 202 204 200 200 199 203 208 209 213 224 226 232 234 230 235 249 263 287 304 309 311 311 312 320 327 336 336 336
193 190 189 197 199 192 194 196 195 194 193 192 192 187 187 207 217 217 215 214 213 215 217 219 229 238 235 230 233 241 248 248 254 279 292 291 292 300 310 322 324 324 333
194 193 191 194 196 194 197 199 197 197 198 198 199 200 199 202 215 220 222 223 222 221 223 227 234 239 240 235 231 232 232 221 222 227 240 273 278 284 295 306 313 329 330
195 194 195 195 196 197 197 200 201 201 202 205 206 207 210 209 212 216 219 222 225 227 229 232 237 240 240 235 231 226 164 152 181 220 206 232 245 259 278 292 305 317 322
199 195 196 196 197 199 199 201 203 204 206 208 211 213 214 215 216 217 217 220 223 226 232 238 240 240 239 231 224 187 158 163 173 192 219 218 223 238 256 275 292 300 312
Height
1473 1471 1469 1468 1469 1470 1472 1473 1475 1478 1479 1481 1483 1483 1485 1486 1487 1487 1488 1487 1487 1486 1486 1486 1485 1484 1484 1484 1482 1481 1479 1478 1476 1475 1472 1470 1468 1467 1465 1463 1463 1462 1462
1470 1467 1466 1465 1466 1468 1470 1472 1475 1477 1479 1480 1481 1483 1484 1485 1485 1486 1486 1486 1486 1485 1485 1485 1484 1484 1483 1482 1481 1479 1478 1476 1475 1473 1471 1469 1467 1465 1462 1460 1459 1458 1457
1468 1465 1464 1465 1465 1466 1470 1473 1476 1477 1479 1480 1481 1482 1483 1484 1484 1485 1485 1485 1485 1485 1485 1485 1484 1484 1483 1482 1480 1479 1477 1476 1474 1472 1469 1467 1465 1463 1461 1459 1457 1455 1454
1467 1465 1464 1465 1466 1468 1472 1474 1477 1478 1479 1481 1482 1483 1484 1484 1484 1485 1485 1485 1485 1485 1485 1485 1485 1484 1483 1482 1481 1479 1477 1476 1474 1472 1470 1468 1465 1463 1460 1458 1455 1453 1452
1467 1466 1466 1467 1469 1470 1473 1476 1477 1478 1480 1481 1482 1483 1484 1485 1485 1485 1486 1486 1487 1487 1487 1486 1486 1485 1483 1482 1482 1480 1478 1477 1475 1473 1471 1469 1467 1464 1461 1458 1455 1452 1450
1467 1466 1466 1467 1469 1472 1474 1477 1478 1479 1481 1482 1484 1485 1485 1486 1486 1487 1488 1488 1489 1489 1489 1489 1488 1487 1485 1484 1483 1482 1480 1479 1477 1476 1474 1472 1470 1467 1463 1460 1456 1452 1450
1466 1466 1466 1467 1469 1471 1474 1476 1478 1480 1482 1483 1485 1486 1486 1487 1488 1489 1490 1491 1491 1491 1491 1491 1490 1489 1487 1487 1485 1484 1483 1481 1479 1478 1477 1475 1473 1470 1466 1463 1459 1455 1452
1465 1465 1465 1466 1468 1471 1473 1475 1478 1480 1482 1483 1485 1487 1488 1489 1490 1491 1492 1493 1493 1493 1492 1492 1491 1490 1489 1488 1488 1487 1485 1483 1482 1480 1478 1476 1475 1472 1469 1466 1463 1459 1455
1464 1464 1464 1465 1467 1469 1472 1474 1476 1479 1481 1483 1485 1487 1488 1490 1491 1493 1493 1494 1494 1494 1493 1493 1493 1492 1491 1490 1490 1489 1487 1486 1484 1482 1480 1478 1476 1473 1470 1468 1465 1462 1459
1462 1463 1463 1464 1466 1468 1470 1472 1475 1477 1480 1483 1484 1486 1488 1490 1491 1492 1493 1495 1494 1495 1494 1494 1493 1492 1492 1491 1490 1489 1488 1487 1486 1484 1482 1480 1478 1475 1472 1469 1467 1465 1462
1460 1460 1461 1463 1464 1466 1468 1471 1473 1476 1479 1481 1483 1485 1487 1489 1491 1492 1493 1494 1495 1495 1495 1495 1494 1493 1492 1491 1490 1489 1488 1487 1487 1485 1483 1481 1479 1476 1474 1471 1468 1467 1465
1457 1458 1459 1461 1463 1465 1467 1469 1472 1475 1477 1480 1482 1485 1486 1488 1490 1491 1492 1493 1494 1495 1495 1495 1493 1492 1492 1491 1491 1490 1489 1488 1487 1486 1484 1482 1480 1478 1475 1473 1470 1467 1465
1453 1455 1457 1459 1461 1463 1466 1468 1471 1474 1477 1479 1482 1484 1486 1487 1488 1490 1491 1492 1492 1493 1493 1492 1492 1492 1492 1492 1491 1491 1490 1489 1488 1486 1484 1482 1480 1478 1476 1473 1471 1469 1467
1450 1452 1454 1457 1459 1462 1464 1467 1469 1472 1475 1478 1480 1482 1484 1486 1488 1489 1490 1490 1491 1491 1492 1492 1492 1492 1493 1493 1492 1492 1491 1489 1488 1486 1484 1482 1480 1478 1476 1473 1471 1469 1467
1447 1449 1452 1454 1457 1459 1462 1464 1467 1470 1473 1476 1478 1480 1483 1485 1487 1488 1489 1490 1491 1491 1491 1493 1493 1494 1494 1494 1493 1493 1491 1490 1488 1486 1484 1482 1480 1478 1476 1473 1471 1469 1467
1444 1446 1449 1452 1454 1456 1459 1461 1463 1467 1469 1472 1476 1479 1481 1483 1484 1486 1487 1488 1489 1490 1491 1493 1494 1494 1494 1494 1493 1492 1491 1490 1488 1486 1484 1482 1480 1478 1476 1474 1472 1470 1467
1440 1442 1445 1448 1450 1453 1455 1458 1460 1463 1466 1469 1472 1475 1478 1480 1482 1484 1486 1487 1488 1489 1491 1493 1493 1494 1494 1494 1493 1492 1491 1490 1488 1486 1485 1483 1480 1478 1476 1474 1472 1470 1468
1435 1438 1441 1443 1446 1449 1452 1454 1457 1460 1463 1466 1469 1473 1476 1479 1481 1483 1485 1486 1488 1489 1491 1492 1493 1493 1493 1493 1493 1492 1491 1490 1488 1487 1485 1483 1481 1479 1477 1475 1473 1471 1469
1430 1433 1436 1439 1442 1445 1448 1451 1454 1457 1460 1464 1467 1469 1473 1476 1479 1481 1483 1485 1487 1488 1489 1490 1491 1492 1492 1492 1492 1491 1490 1489 1488 1486 1485 1483 1481 1480 1478 1476 1474 1472 1469
1424 1427 1430 1434 1437 1440 1443 1446 1450 1453 1457 1460 1464 1466 1469 1473 1476 1478 1480 1483 1485 1486 1487 1488 1489 1489 1490 1490 1490 1489 1489 1488 1487 1485 1484 1483 1481 1480 1478 1476 1474 1472 1470
1417 1420 1424 1428 1432 1435 1438 1442 1445 1449 1453 1456 1460 1463 1466 1470 1473 1476 1478 1480 1481 1483 1484 1485 1486 1486 1487 1487 1487 1487 1487 1486 1485 1484 1483 1482 1480 1479 1477 1475 1474 1472 1470
1410 1413 1417 1422 1426 1430 1434 1437 1441 1445 1449 1453 1456 1460 1463 1467 1470 1472 1474 1476 1478 1479 1480 1481 1482 1483 1483 1483 1484 1484 1483 1483 1482 1482 1481 1480 1479 1477 1476 1474 1473 1471 1469
1403 1407 1411 1416 1421 1425 1429 1433 1437 1440 1444 1448 1452 1455 1458 1462 1465 1467 1469 1471 1473 1475 1476 1477 1478 1478 1479 1479 1479 1479 1480 1479 1479 1478 1478 1477 1476 1475 1474 1473 1471 1470 1468
1396 1400 1404 1409 1414 1419 1423 1427 1431 1435 1439 1443 1447 1450 1453 1456 1459 1461 1464 1466 1468 1469 1471 1472 1473 1473 1474 1474 1474 1474 1475 1475 1475 1475 1474 1474 1473 1473 1472 1471 1470 1468 1467
1389 1394 1398 1402 1407 1412 1417 1421 1425 1430 1434 1437 1441 1444 1447 1450 1452 1455 1457 1460 1462 1463 1465 1466 1467 1467 1468 1468 1469 1469 1469 1468 1469 1470 1470 1470 1469 1469 1469 1468 1467 1466 1465
1382 1387 1391 1396 1401 1405 1410 1414 1419 1423 1427 1431 1434 1438 1441 1443 1446 1448 1451 1453 1455 1457 1458 1460 1460 1461 1461 1461 1462 1462 1462 1462 1463 1464 1465 1466 1466 1466 1466 1466 1465 1464 1463